Location: Julian California
(33.0790°N, 116.6010°W)
Time: 04:57:46
(UTC-07:00)

Cosmos 2228 Rocket - Pass Details

Date: 12 July 2018
Orbit: 617 x 654 km, 82.5° (Epoch: 21 July)

Event Time Altitude Azimuth Distance (km) Brightness Sun altitude
Rises 20:51:06 0° 10° (N) 2,889 6.8 -10.5°
Reaches altitude 10° 20:53:46 10° 26° (NNE) 1,980 5.8 -11.0°
Maximum altitude 20:57:10 22° 77° (ENE) 1,363 4.5 -11.6°
Enters shadow 20:59:08 16° 112° (ESE) 1,597 4.6 -11.9°
